VCP48F EGKK-EGPH

Flight info

Callsign VCP48F
Flight time 1h 3m
Altitude 34000
Route LAM L10 BPK UN601 RIBEL DCT INPIP
Aircraft A320/M-SDE3FGHIRWY/LB1

Departure

Time 2026-04-22 13:31
Airport London Gatwick Airport (EGKK)

Arrival

Time 2026-04-22 14:34
Airport Edinburgh Airport (EGPH)
Time Latitude Longitude Altitude Speed Heading
2026-04-22 12:45 51.16025 -0.18000 198 ft 0 kts 78°
2026-04-22 13:06 51.16025 -0.18001 198 ft 0 kts 78°
2026-04-22 13:08 51.16022 -0.18022 198 ft 2 kts 78°
2026-04-22 13:09 51.16019 -0.18046 198 ft 2 kts 78°
2026-04-22 13:09 51.16016 -0.18069 198 ft 2 kts 78°
2026-04-22 13:09 51.16014 -0.18093 198 ft 2 kts 99°
2026-04-22 13:09 51.16019 -0.18116 198 ft 2 kts 117°
2026-04-22 13:10 51.16027 -0.18135 198 ft 2 kts 137°
2026-04-22 13:10 51.16040 -0.18149 198 ft 2 kts 158°
2026-04-22 13:10 51.16047 -0.18153 198 ft 1 kts 168°
2026-04-22 13:10 51.16034 -0.18147 198 ft 5 kts 167°
2026-04-22 13:11 51.15996 -0.18133 198 ft 3 kts 167°
2026-04-22 13:11 51.15987 -0.18131 198 ft 0 kts 167°
2026-04-22 13:14 51.15987 -0.18130 198 ft 0 kts 167°
2026-04-22 13:15 51.15980 -0.18128 198 ft 1 kts 166°
2026-04-22 13:15 51.15965 -0.18122 198 ft 2 kts 166°
2026-04-22 13:15 51.15944 -0.18113 198 ft 3 kts 165°
2026-04-22 13:15 51.15916 -0.18102 198 ft 4 kts 166°
2026-04-22 13:16 51.15884 -0.18089 198 ft 5 kts 166°
2026-04-22 13:16 51.15848 -0.18076 198 ft 5 kts 168°
2026-04-22 13:16 51.15822 -0.18067 198 ft 3 kts 168°
2026-04-22 13:16 51.15799 -0.18059 198 ft 3 kts 167°
2026-04-22 13:17 51.15763 -0.18046 198 ft 6 kts 167°
2026-04-22 13:17 51.15709 -0.18040 198 ft 8 kts 200°
2026-04-22 13:17 51.15675 -0.18124 198 ft 10 kts 256°
2026-04-22 13:17 51.15658 -0.18244 198 ft 11 kts 258°
2026-04-22 13:18 51.15637 -0.18347 199 ft 9 kts 220°
2026-04-22 13:18 51.15568 -0.18342 199 ft 10 kts 164°
2026-04-22 13:18 51.15499 -0.18313 199 ft 10 kts 168°
2026-04-22 13:18 51.15429 -0.18290 199 ft 10 kts 170°
2026-04-22 13:19 51.15357 -0.18268 199 ft 10 kts 168°
2026-04-22 13:19 51.15275 -0.18239 200 ft 13 kts 166°
2026-04-22 13:19 51.15199 -0.18247 200 ft 11 kts 227°
2026-04-22 13:19 51.15172 -0.18372 200 ft 12 kts 259°
2026-04-22 13:20 51.15156 -0.18518 200 ft 14 kts 261°
2026-04-22 13:20 51.15136 -0.18674 200 ft 14 kts 257°
2026-04-22 13:20 51.15113 -0.18833 200 ft 14 kts 257°
2026-04-22 13:20 51.15090 -0.18990 201 ft 14 kts 257°
2026-04-22 13:21 51.15066 -0.19154 201 ft 15 kts 259°
2026-04-22 13:21 51.15046 -0.19321 201 ft 15 kts 259°
2026-04-22 13:21 51.15027 -0.19469 201 ft 14 kts 258°
2026-04-22 13:21 51.15005 -0.19626 201 ft 14 kts 258°
2026-04-22 13:22 51.14985 -0.19769 201 ft 13 kts 258°
2026-04-22 13:22 51.14965 -0.19919 201 ft 14 kts 257°
2026-04-22 13:22 51.14941 -0.20078 201 ft 15 kts 257°
2026-04-22 13:22 51.14919 -0.20245 201 ft 15 kts 258°
2026-04-22 13:23 51.14896 -0.20418 202 ft 16 kts 258°
2026-04-22 13:23 51.14872 -0.20595 202 ft 16 kts 258°
2026-04-22 13:23 51.14848 -0.20764 202 ft 12 kts 257°
2026-04-22 13:23 51.14829 -0.20905 203 ft 13 kts 257°
2026-04-22 13:24 51.14807 -0.21053 203 ft 13 kts 257°
2026-04-22 13:24 51.14782 -0.21189 204 ft 8 kts 251°
2026-04-22 13:24 51.14771 -0.21264 204 ft 0 kts 258°
2026-04-22 13:24 51.14769 -0.21280 204 ft 2 kts 258°
2026-04-22 13:25 51.14764 -0.21312 204 ft 1 kts 258°
2026-04-22 13:25 51.14761 -0.21335 204 ft 2 kts 258°
2026-04-22 13:25 51.14754 -0.21376 204 ft 4 kts 243°
2026-04-22 13:25 51.14736 -0.21402 204 ft 3 kts 205°
2026-04-22 13:26 51.14728 -0.21405 204 ft 2 kts 190°
2026-04-22 13:26 51.14697 -0.21399 204 ft 6 kts 163°
2026-04-22 13:26 51.14656 -0.21354 204 ft 7 kts 140°
2026-04-22 13:26 51.14606 -0.21322 204 ft 8 kts 164°
2026-04-22 13:27 51.14552 -0.21290 204 ft 8 kts 143°
2026-04-22 13:27 51.14521 -0.21206 204 ft 9 kts 102°
2026-04-22 13:27 51.14523 -0.21134 204 ft 10 kts 78°
2026-04-22 13:27 51.14531 -0.21084 204 ft 0 kts 76°
2026-04-22 13:30 51.14536 -0.21051 204 ft 14 kts 77°
2026-04-22 13:30 51.14613 -0.20498 202 ft 86 kts 77°
2026-04-22 13:30 51.14785 -0.19260 203 ft 142 kts 78°
2026-04-22 13:30 51.15011 -0.17600 597 ft 156 kts 78°
2026-04-22 13:31 51.15247 -0.15988 1347 ft 151 kts 77°
2026-04-22 13:31 51.15501 -0.14408 2095 ft 149 kts 76°
2026-04-22 13:31 51.15773 -0.12825 2765 ft 151 kts 78°
2026-04-22 13:31 51.15990 -0.11119 3156 ft 167 kts 80°
2026-04-22 13:32 51.16219 -0.09223 3541 ft 183 kts 80°
2026-04-22 13:32 51.16596 -0.07208 3918 ft 203 kts 69°
2026-04-22 13:32 51.17366 -0.05140 4284 ft 228 kts 58°
2026-04-22 13:32 51.18351 -0.03048 4755 ft 243 kts 57°
2026-04-22 13:33 51.19387 -0.00905 4984 ft 247 kts 56°
2026-04-22 13:33 51.20435 0.01258 4992 ft 247 kts 56°
2026-04-22 13:33 51.21479 0.03413 4995 ft 247 kts 56°
2026-04-22 13:33 51.22525 0.05577 4995 ft 247 kts 56°
2026-04-22 13:34 51.23582 0.07767 4995 ft 247 kts 56°
2026-04-22 13:34 51.24554 0.09987 4995 ft 245 kts 65°
2026-04-22 13:34 51.25185 0.12501 4999 ft 242 kts 77°
2026-04-22 13:34 51.25532 0.15124 5001 ft 242 kts 81°
2026-04-22 13:35 51.25840 0.17756 5001 ft 241 kts 81°
2026-04-22 13:35 51.26146 0.20383 4999 ft 241 kts 81°
2026-04-22 13:35 51.26456 0.23041 4999 ft 241 kts 81°
2026-04-22 13:35 51.26765 0.25672 4999 ft 241 kts 81°
2026-04-22 13:36 51.27072 0.28286 4999 ft 241 kts 81°
2026-04-22 13:36 51.27380 0.30906 5007 ft 241 kts 81°
2026-04-22 13:36 51.27759 0.33206 5011 ft 244 kts 66°
2026-04-22 13:36 51.28603 0.35017 5013 ft 250 kts 45°
2026-04-22 13:37 51.30148 0.36356 5006 ft 261 kts 19°
2026-04-22 13:37 51.31993 0.36424 4994 ft 273 kts 351°
2026-04-22 13:37 51.33802 0.35365 5021 ft 278 kts 342°
2026-04-22 13:37 51.35567 0.34174 5006 ft 278 kts 342°
2026-04-22 13:38 51.37346 0.32980 5010 ft 278 kts 342°
2026-04-22 13:38 51.40964 0.30604 5012 ft 278 kts 342°
2026-04-22 13:38 51.42773 0.29427 5097 ft 283 kts 342°
2026-04-22 13:39 51.44632 0.28223 5642 ft 285 kts 342°
2026-04-22 13:39 51.46455 0.27037 5963 ft 285 kts 342°
2026-04-22 13:39 51.48296 0.25838 6016 ft 285 kts 342°
2026-04-22 13:39 51.50134 0.24640 6020 ft 284 kts 342°
2026-04-22 13:40 51.51946 0.23458 6024 ft 284 kts 342°
2026-04-22 13:40 51.53782 0.22259 6025 ft 284 kts 342°
2026-04-22 13:40 51.55611 0.21063 6025 ft 284 kts 342°
2026-04-22 13:40 51.57427 0.19877 6027 ft 284 kts 342°
2026-04-22 13:41 51.59249 0.18685 6027 ft 285 kts 342°
2026-04-22 13:41 51.61102 0.17471 6030 ft 285 kts 342°
2026-04-22 13:41 51.62937 0.16271 6104 ft 290 kts 341°
2026-04-22 13:41 51.64700 0.14572 6700 ft 303 kts 320°
2026-04-22 13:42 51.66025 0.11959 7724 ft 302 kts 305°
2026-04-22 13:42 51.67149 0.09137 8617 ft 304 kts 303°
2026-04-22 13:42 51.68251 0.06275 9429 ft 307 kts 302°
2026-04-22 13:42 51.69385 0.03356 10248 ft 310 kts 303°
2026-04-22 13:43 51.70546 0.00417 10985 ft 317 kts 303°
2026-04-22 13:43 51.71773 -0.02665 11401 ft 335 kts 303°
2026-04-22 13:43 51.73053 -0.05863 11748 ft 353 kts 303°
2026-04-22 13:43 51.74519 -0.09168 12070 ft 370 kts 312°
2026-04-22 13:44 51.76429 -0.12028 12611 ft 377 kts 325°
2026-04-22 13:44 51.78622 -0.14297 13327 ft 378 kts 331°
2026-04-22 13:44 51.80883 -0.16420 14057 ft 381 kts 332°
2026-04-22 13:44 51.83201 -0.18571 14761 ft 384 kts 332°
2026-04-22 13:45 51.85524 -0.20745 15464 ft 387 kts 332°
2026-04-22 13:45 51.87827 -0.22921 16147 ft 389 kts 331°
2026-04-22 13:45 51.90177 -0.25152 16830 ft 392 kts 331°
2026-04-22 13:45 51.92514 -0.27383 17487 ft 394 kts 331°
2026-04-22 13:46 51.94883 -0.29652 18134 ft 396 kts 331°
2026-04-22 13:46 51.97242 -0.31913 18789 ft 398 kts 331°
2026-04-22 13:46 51.99615 -0.34191 19470 ft 398 kts 331°
2026-04-22 13:46 52.01962 -0.36448 20156 ft 398 kts 331°
2026-04-22 13:47 52.04356 -0.38753 20845 ft 397 kts 330°
2026-04-22 13:47 52.06697 -0.41011 21468 ft 398 kts 330°
2026-04-22 13:47 52.09059 -0.43290 22119 ft 397 kts 330°
2026-04-22 13:47 52.11439 -0.45588 22734 ft 398 kts 330°
2026-04-22 13:48 52.13828 -0.47900 23321 ft 398 kts 330°
2026-04-22 13:48 52.16194 -0.50191 23900 ft 399 kts 330°
2026-04-22 13:48 52.18589 -0.52515 24433 ft 400 kts 330°
2026-04-22 13:48 52.20987 -0.54845 24914 ft 403 kts 330°
2026-04-22 13:49 52.23391 -0.57183 25363 ft 406 kts 329°
2026-04-22 13:49 52.25804 -0.59531 25815 ft 408 kts 329°
2026-04-22 13:49 52.28244 -0.61910 26265 ft 409 kts 329°
2026-04-22 13:49 52.30687 -0.64296 26699 ft 411 kts 329°
2026-04-22 13:50 52.33137 -0.66694 27195 ft 411 kts 328°
2026-04-22 13:50 52.35572 -0.69078 27782 ft 408 kts 328°
2026-04-22 13:50 52.37885 -0.71343 28333 ft 406 kts 328°
2026-04-22 13:50 52.40187 -0.73601 28859 ft 404 kts 328°
2026-04-22 13:51 52.42329 -0.75703 29332 ft 402 kts 328°
2026-04-22 13:51 52.44751 -0.78085 29839 ft 401 kts 328°
2026-04-22 13:51 52.47132 -0.80430 30315 ft 400 kts 328°
2026-04-22 13:51 52.49517 -0.82782 30779 ft 399 kts 327°
2026-04-22 13:52 52.51885 -0.85122 31226 ft 398 kts 327°
2026-04-22 13:52 52.54256 -0.87469 31659 ft 397 kts 327°
2026-04-22 13:52 52.56609 -0.89801 32071 ft 396 kts 328°
2026-04-22 13:52 52.58978 -0.92153 32477 ft 395 kts 328°
2026-04-22 13:53 52.61315 -0.94472 32826 ft 395 kts 328°
2026-04-22 13:53 52.63655 -0.96796 33104 ft 397 kts 328°
2026-04-22 13:53 52.66027 -0.99157 33359 ft 399 kts 328°
2026-04-22 13:53 52.68394 -1.01514 33605 ft 401 kts 328°
2026-04-22 13:54 52.70787 -1.03902 33872 ft 402 kts 328°
2026-04-22 13:54 52.73178 -1.06290 34115 ft 403 kts 327°
2026-04-22 13:54 52.75587 -1.08698 34313 ft 405 kts 327°
2026-04-22 13:54 52.77997 -1.11111 34342 ft 407 kts 327°
2026-04-22 13:55 52.82838 -1.15968 34354 ft 407 kts 327°
2026-04-22 13:55 52.87686 -1.20847 34352 ft 407 kts 327°
2026-04-22 13:56 52.92491 -1.25695 34354 ft 406 kts 327°
2026-04-22 13:56 52.97321 -1.30583 34353 ft 406 kts 327°
2026-04-22 13:57 53.02134 -1.35462 34356 ft 407 kts 327°
2026-04-22 13:57 53.06981 -1.40387 34357 ft 408 kts 327°
2026-04-22 13:58 53.11766 -1.45267 34357 ft 409 kts 327°
2026-04-22 13:58 53.16443 -1.50049 34365 ft 409 kts 327°
2026-04-22 13:59 53.21259 -1.54984 34364 ft 409 kts 327°
2026-04-22 13:59 53.26076 -1.59939 34365 ft 409 kts 327°
2026-04-22 14:00 53.30947 -1.64957 34363 ft 410 kts 327°
2026-04-22 14:00 53.35572 -1.69734 34360 ft 410 kts 326°
2026-04-22 14:01 53.40432 -1.74768 34358 ft 410 kts 326°
2026-04-22 14:01 53.45303 -1.79831 34345 ft 410 kts 326°
2026-04-22 14:02 53.50126 -1.84851 34344 ft 411 kts 326°
2026-04-22 14:02 53.54985 -1.89920 34345 ft 411 kts 326°
2026-04-22 14:03 53.59835 -1.94994 34351 ft 411 kts 326°
2026-04-22 14:03 53.64691 -2.00095 34353 ft 412 kts 326°
2026-04-22 14:04 53.69559 -2.05227 34372 ft 412 kts 326°
2026-04-22 14:04 53.74507 -2.10039 34363 ft 413 kts 331°
2026-04-22 14:05 53.79743 -2.14000 34374 ft 414 kts 335°
2026-04-22 14:06 53.87750 -2.19446 34371 ft 414 kts 336°
2026-04-22 14:06 53.93047 -2.23068 34372 ft 414 kts 335°
2026-04-22 14:07 53.98382 -2.26734 34380 ft 414 kts 335°
2026-04-22 14:07 54.03709 -2.30406 34369 ft 416 kts 336°
2026-04-22 14:08 54.09069 -2.34106 34364 ft 416 kts 336°
2026-04-22 14:08 54.14276 -2.37712 34364 ft 416 kts 336°
2026-04-22 14:09 54.19624 -2.41425 34355 ft 416 kts 335°
2026-04-22 14:09 54.24952 -2.45135 34353 ft 416 kts 335°
2026-04-22 14:10 54.30291 -2.48865 34170 ft 416 kts 335°
2026-04-22 14:10 54.32952 -2.50727 33910 ft 414 kts 335°
2026-04-22 14:10 54.35595 -2.52577 33654 ft 411 kts 335°
2026-04-22 14:10 54.38244 -2.54435 33397 ft 408 kts 335°
2026-04-22 14:11 54.40867 -2.56278 33135 ft 406 kts 335°
2026-04-22 14:11 54.43442 -2.58092 32833 ft 406 kts 335°
2026-04-22 14:11 54.46060 -2.59938 32428 ft 406 kts 335°
2026-04-22 14:11 54.48679 -2.61786 31954 ft 406 kts 335°
2026-04-22 14:12 54.51257 -2.63607 31438 ft 406 kts 335°
2026-04-22 14:12 54.53870 -2.65457 30861 ft 406 kts 334°
2026-04-22 14:12 54.56502 -2.67323 30220 ft 406 kts 334°
2026-04-22 14:12 54.59114 -2.69178 29547 ft 407 kts 334°
2026-04-22 14:13 54.61723 -2.71036 28821 ft 409 kts 334°
2026-04-22 14:13 54.64330 -2.72894 28113 ft 410 kts 334°
2026-04-22 14:13 54.66943 -2.74754 27707 ft 402 kts 334°
2026-04-22 14:13 54.69453 -2.76539 27566 ft 389 kts 334°
2026-04-22 14:14 54.71915 -2.78294 27347 ft 378 kts 334°
2026-04-22 14:14 54.74306 -2.80003 27180 ft 366 kts 334°
2026-04-22 14:14 54.76621 -2.81659 27057 ft 354 kts 334°
2026-04-22 14:14 54.78850 -2.83259 26893 ft 349 kts 333°
2026-04-22 14:15 54.81146 -2.84919 26773 ft 364 kts 333°
2026-04-22 14:15 54.83501 -2.86620 26639 ft 368 kts 334°
2026-04-22 14:15 54.85839 -2.88304 26501 ft 370 kts 334°
2026-04-22 14:15 54.88214 -2.90013 26363 ft 370 kts 334°
2026-04-22 14:16 54.90588 -2.91724 26055 ft 367 kts 334°
2026-04-22 14:16 54.92944 -2.93426 25398 ft 370 kts 334°
2026-04-22 14:16 54.95309 -2.95142 24764 ft 371 kts 334°
2026-04-22 14:16 54.97680 -2.96858 24292 ft 367 kts 334°
2026-04-22 14:17 54.99980 -2.98524 23698 ft 358 kts 334°
2026-04-22 14:17 55.02259 -3.00178 22811 ft 357 kts 334°
2026-04-22 14:17 55.04551 -3.01853 21768 ft 365 kts 335°
2026-04-22 14:17 55.06897 -3.03568 21013 ft 368 kts 335°
2026-04-22 14:18 55.09232 -3.05270 20568 ft 372 kts 335°
2026-04-22 14:18 55.11453 -3.06891 20123 ft 375 kts 336°
2026-04-22 14:18 55.13781 -3.08590 19643 ft 366 kts 336°
2026-04-22 14:18 55.16066 -3.10259 19164 ft 351 kts 336°
2026-04-22 14:19 55.18048 -3.11710 18768 ft 337 kts 336°
2026-04-22 14:19 55.20178 -3.13271 18411 ft 327 kts 336°
2026-04-22 14:19 55.22280 -3.14814 18049 ft 330 kts 336°
2026-04-22 14:19 55.24383 -3.16360 17653 ft 331 kts 336°
2026-04-22 14:20 55.28655 -3.19474 16657 ft 336 kts 341°
2026-04-22 14:20 55.30934 -3.20261 16126 ft 337 kts 359°
2026-04-22 14:20 55.33242 -3.20077 15671 ft 337 kts
2026-04-22 14:21 55.37909 -3.19263 14727 ft 338 kts
2026-04-22 14:21 55.40225 -3.18863 14307 ft 337 kts
2026-04-22 14:22 55.44830 -3.18110 13483 ft 325 kts
2026-04-22 14:22 55.47043 -3.17756 12936 ft 316 kts
2026-04-22 14:22 55.51270 -3.17091 11891 ft 297 kts
2026-04-22 14:23 55.53295 -3.16773 11395 ft 288 kts
2026-04-22 14:23 55.55243 -3.16466 10918 ft 282 kts
2026-04-22 14:23 55.57183 -3.16161 10477 ft 280 kts
2026-04-22 14:23 55.59100 -3.16494 10191 ft 283 kts 338°
2026-04-22 14:24 55.60641 -3.18562 9970 ft 281 kts 304°
2026-04-22 14:24 55.61501 -3.21608 9800 ft 276 kts 291°
2026-04-22 14:24 55.62213 -3.24769 9659 ft 276 kts 291°
2026-04-22 14:24 55.62955 -3.27897 9520 ft 276 kts 293°
2026-04-22 14:25 55.63738 -3.30967 9350 ft 273 kts 295°
2026-04-22 14:25 55.64539 -3.33958 9024 ft 273 kts 295°
2026-04-22 14:25 55.65371 -3.36977 8667 ft 272 kts 296°
2026-04-22 14:25 55.66211 -3.39985 8266 ft 274 kts 296°
2026-04-22 14:26 55.67043 -3.42948 7979 ft 271 kts 296°
2026-04-22 14:26 55.67877 -3.45914 7667 ft 269 kts 296°
2026-04-22 14:26 55.68708 -3.48868 7338 ft 268 kts 296°
2026-04-22 14:26 55.69539 -3.51821 7022 ft 266 kts 297°
2026-04-22 14:27 55.70362 -3.54735 6700 ft 265 kts 299°
2026-04-22 14:27 55.71516 -3.57213 6402 ft 259 kts 328°
2026-04-22 14:27 55.73062 -3.58704 6158 ft 253 kts 338°
2026-04-22 14:27 55.74647 -3.59977 5914 ft 249 kts 338°
2026-04-22 14:28 55.76202 -3.61311 5662 ft 246 kts 336°
2026-04-22 14:28 55.77711 -3.62718 5390 ft 244 kts 335°
2026-04-22 14:28 55.79191 -3.64170 5105 ft 242 kts 334°
2026-04-22 14:28 55.80669 -3.65658 4810 ft 241 kts 333°
2026-04-22 14:29 55.82107 -3.67117 4597 ft 236 kts 333°
2026-04-22 14:29 55.83588 -3.68265 4260 ft 230 kts 356°
2026-04-22 14:29 55.85118 -3.67936 3965 ft 217 kts 31°
2026-04-22 14:29 55.86155 -3.66245 3911 ft 195 kts 66°
2026-04-22 14:30 55.86577 -3.64038 3692 ft 190 kts 77°
2026-04-22 14:30 55.86940 -3.61815 3468 ft 184 kts 71°
2026-04-22 14:30 55.87440 -3.59741 3171 ft 182 kts 65°
2026-04-22 14:30 55.88051 -3.57796 2912 ft 176 kts 60°
2026-04-22 14:31 55.88690 -3.55971 2620 ft 173 kts 60°
2026-04-22 14:31 55.89301 -3.54149 2323 ft 166 kts 62°
2026-04-22 14:31 55.89821 -3.52413 2076 ft 152 kts 63°
2026-04-22 14:31 55.90349 -3.50862 1827 ft 142 kts 58°
2026-04-22 14:32 55.90860 -3.49433 1557 ft 135 kts 60°
2026-04-22 14:32 55.91329 -3.48025 1305 ft 131 kts 60°
2026-04-22 14:32 55.91804 -3.46620 1146 ft 132 kts 60°
2026-04-22 14:32 55.92281 -3.45246 1002 ft 132 kts 59°
2026-04-22 14:33 55.92757 -3.43831 851 ft 133 kts 59°
2026-04-22 14:33 55.93243 -3.42424 653 ft 133 kts 59°
2026-04-22 14:33 55.93712 -3.41019 467 ft 132 kts 59°
2026-04-22 14:33 55.94196 -3.39606 261 ft 132 kts 58°
2026-04-22 14:34 55.94673 -3.38213 126 ft 130 kts 58°
2026-04-22 14:34 55.95082 -3.37002 106 ft 92 kts 59°
2026-04-22 14:34 55.95327 -3.36284 106 ft 45 kts 60°
2026-04-22 14:34 55.95482 -3.35833 105 ft 39 kts 59°
2026-04-22 14:35 55.95563 -3.35589 105 ft 14 kts 73°
2026-04-22 14:35 55.95514 -3.35456 105 ft 13 kts 147°
2026-04-22 14:35 55.95432 -3.35418 106 ft 13 kts 215°
2026-04-22 14:35 55.95380 -3.35557 106 ft 14 kts 243°
2026-04-22 14:36 55.95327 -3.35709 106 ft 15 kts 237°
2026-04-22 14:36 55.95271 -3.35875 106 ft 16 kts 239°
2026-04-22 14:36 55.95213 -3.36050 106 ft 16 kts 238°
2026-04-22 14:36 55.95150 -3.36233 106 ft 17 kts 238°
2026-04-22 14:37 55.95099 -3.36382 106 ft 11 kts 228°
2026-04-22 14:37 55.95025 -3.36397 106 ft 11 kts 208°
2026-04-22 14:37 55.94990 -3.36468 106 ft 4 kts 237°
2026-04-22 14:37 55.94958 -3.36471 106 ft 6 kts 150°
2026-04-22 14:38 55.94928 -3.36438 106 ft 3 kts 146°
2026-04-22 14:38 55.94924 -3.36433 106 ft 0 kts 147°
2026-04-22 14:38 55.94920 -3.36429 106 ft 0 kts 147°